Location: Newark
(48.8656°N, 2.3211°E)
Time: 14:47:49
(UTC+00:00)

Envisat - Pass Details

Date: 17 December 2019
Orbit: 764 x 766 km, 98.1° (Epoch: 18 January)

Event Time Altitude Azimuth Distance (km) Brightness Sun altitude
Rises 18:16:30 0° 185° (S) 3,221 6.4 -22.1°
Reaches altitude 10° 18:18:55 10° 193° (SSW) 2,299 5.7 -22.5°
Maximum altitude 18:23:42 41° 263° (W) 1,107 4.3 -23.3°
Drops below altitude 10° 18:28:30 10° 333° (NNW) 2,315 5.7 -24.1°
Sets 18:30:58 0° 341° (NNW) 3,246 6.4 -24.5°
